Tiempo cada hora Murtajapur

Hoy, 29 Octubre, Jueves

Tiempo Temperatura Precipitaciones Viento Presión Humedad
00:00 +22°C° 0 mm 0 mps 733 mmHg 50%
01:00 +24°C° 0 mm 1 mps 733 mmHg 51%
02:00 +24°C° 0 mm 1 mps 732 mmHg 52%
03:00 +21°C° 0 mm 0 mps 732 mmHg 53%
04:00 +21°C° 0 mm 0 mps 732 mmHg 54%
05:00 +21°C° 0 mm 0 mps 732 mmHg 57%
06:00 +22°C° 0 mm 0 mps 733 mmHg 54%
07:00 +23°C° 0 mm 0 mps 734 mmHg 52%
08:00 +25°C° 0 mm 0 mps 735 mmHg 50%
09:00 +26°C° 0 mm 0 mps 735 mmHg 46%
10:00 +30°C° 0 mm 1 mps 734 mmHg 42%
11:00 +31°C° 0 mm 1 mps 734 mmHg 37%
12:00 +32°C° 0 mm 1 mps 733 mmHg 36%
13:00 +32°C° 0 mm 1 mps 733 mmHg 34%
14:00 +32°C° 0 mm 1 mps 732 mmHg 33%
15:00 +31°C° 0 mm 1 mps 732 mmHg 37%
16:00 +30°C° 0 mm 1 mps 732 mmHg 42%
17:00 +29°C° 0 mm 1 mps 732 mmHg 47%
18:00 +28°C° 0 mm 1 mps 733 mmHg 48%
19:00 +27°C° 0 mm 1 mps 733 mmHg 49%
20:00 +26°C° 0 mm 1 mps 734 mmHg 50%
21:00 +26°C° 0 mm 1 mps 734 mmHg 52%
22:00 +25°C° 0 mm 1 mps 734 mmHg 54%
23:00 +25°C° 0 mm 1 mps 733 mmHg 56%

Mañana, 30 Octubre, Viernes

Tiempo Temperatura Precipitaciones Viento Presión Humedad
00:00 +24°C° 0 mm 1 mps 733 mmHg 58%
01:00 +24°C° 0 mm 1 mps 733 mmHg 59%
02:00 +22°C° 0 mm 0 mps 732 mmHg 60%
03:00 +23°C° 0 mm 1 mps 732 mmHg 61%
04:00 +23°C° 0 mm 1 mps 732 mmHg 62%
05:00 +23°C° 0 mm 1 mps 732 mmHg 63%
06:00 +24°C° 0 mm 1 mps 733 mmHg 60%
07:00 +25°C° 0 mm 1 mps 734 mmHg 57%
08:00 +27°C° 0 mm 1 mps 735 mmHg 54%
09:00 +28°C° 0 mm 1 mps 734 mmHg 51%
10:00 +29°C° 0 mm 2 mps 734 mmHg 47%
11:00 +31°C° 0 mm 2 mps 734 mmHg 43%
12:00 +31°C° 0 mm 2 mps 733 mmHg 42%
13:00 +32°C° 0 mm 2 mps 733 mmHg 40%
14:00 +32°C° 0 mm 2 mps 732 mmHg 38%
15:00 +31°C° 0 mm 2 mps 732 mmHg 42%
16:00 +30°C° 0 mm 2 mps 732 mmHg 47%
17:00 +29°C° 0 mm 1 mps 732 mmHg 51%
18:00 +28°C° 0 mm 1 mps 732 mmHg 52%
19:00 +27°C° 0 mm 1 mps 733 mmHg 53%
20:00 +26°C° 0 mm 1 mps 734 mmHg 55%
21:00 +26°C° 0 mm 1 mps 733 mmHg 56%
22:00 +25°C° 0 mm 1 mps 733 mmHg 58%
23:00 +25°C° 0 mm 1 mps 733 mmHg 60%

Pasado mañana, 31 Octubre, Sábado

Tiempo Temperatura Precipitaciones Viento Presión Humedad
00:00 +25°C° 0 mm 1 mps 733 mmHg 60%
01:00 +24°C° 0 mm 1 mps 733 mmHg 61%
02:00 +24°C° 0 mm 1 mps 733 mmHg 62%
03:00 +24°C° 0 mm 1 mps 733 mmHg 61%
04:00 +24°C° 0 mm 1 mps 733 mmHg 61%
05:00 +24°C° 0 mm 1 mps 733 mmHg 61%
06:00 +24°C° 0 mm 1 mps 733 mmHg 60%
07:00 +25°C° 0 mm 1 mps 734 mmHg 59%
08:00 +26°C° 0 mm 1 mps 734 mmHg 58%
09:00 +27°C° 0 mm 1 mps 734 mmHg 55%
10:00 +28°C° 0 mm 1 mps 734 mmHg 51%
11:00 +29°C° 0 mm 1 mps 734 mmHg 48%
12:00 +30°C° 0 mm 1 mps 733 mmHg 45%
13:00 +31°C° 0 mm 1 mps 733 mmHg 42%
14:00 +32°C° 0 mm 1 mps 732 mmHg 39%
15:00 +31°C° 0 mm 1 mps 732 mmHg 43%
16:00 +30°C° 0 mm 1 mps 732 mmHg 47%
17:00 +27°C° 0 mm 0 mps 732 mmHg 51%
18:00 +26°C° 0 mm 0 mps 733 mmHg 52%
19:00 +25°C° 0 mm 0 mps 733 mmHg 52%
20:00 +24°C° 0 mm 0 mps 733 mmHg 53%
21:00 +24°C° 0 mm 0 mps 733 mmHg 54%
22:00 +25°C° 0 mm 1 mps 733 mmHg 55%
23:00 +25°C° 0 mm 1 mps 733 mmHg 56%

1 Noviembre, Domingo

Tiempo Temperatura Precipitaciones Viento Presión Humedad
00:00 +24°C° 0 mm 1 mps 733 mmHg 57%
01:00 +24°C° 0 mm 1 mps 733 mmHg 58%
02:00 +24°C° 0 mm 1 mps 732 mmHg 59%
03:00 +24°C° 0 mm 1 mps 733 mmHg 59%
04:00 +21°C° 0 mm 0 mps 733 mmHg 59%
05:00 +21°C° 0 mm 0 mps 733 mmHg 59%
06:00 +22°C° 0 mm 0 mps 733 mmHg 56%
07:00 +25°C° 0 mm 1 mps 734 mmHg 53%
08:00 +27°C° 0 mm 1 mps 735 mmHg 50%
09:00 +28°C° 0 mm 1 mps 734 mmHg 46%
10:00 +30°C° 0 mm 1 mps 734 mmHg 42%
11:00 +31°C° 0 mm 1 mps 734 mmHg 38%
12:00 +32°C° 0 mm 1 mps 734 mmHg 37%
13:00 +32°C° 0 mm 2 mps 733 mmHg 36%
14:00 +34°C° 0 mm 2 mps 732 mmHg 35%
15:00 +32°C° 0 mm 1 mps 732 mmHg 39%
16:00 +30°C° 0 mm 1 mps 733 mmHg 43%
17:00 +29°C° 0 mm 1 mps 733 mmHg 48%
18:00 +28°C° 0 mm 1 mps 733 mmHg 49%
19:00 +28°C° 0 mm 1 mps 733 mmHg 50%
20:00 +27°C° 0 mm 1 mps 734 mmHg 50%
21:00 +26°C° 0 mm 1 mps 734 mmHg 52%
22:00 +26°C° 0 mm 1 mps 734 mmHg 54%
23:00 +25°C° 0 mm 1 mps 734 mmHg 55%

2 Noviembre, Lunes

Tiempo Temperatura Precipitaciones Viento Presión Humedad
00:00 +25°C° 0 mm 1 mps 733 mmHg 55%
01:00 +24°C° 0 mm 1 mps 733 mmHg 54%
02:00 +24°C° 0 mm 1 mps 733 mmHg 54%
03:00 +24°C° 0 mm 1 mps 733 mmHg 53%
04:00 +23°C° 0 mm 1 mps 733 mmHg 53%
05:00 +23°C° 0 mm 1 mps 733 mmHg 52%
06:00 +24°C° 0 mm 1 mps 734 mmHg 50%
07:00 +25°C° 0 mm 1 mps 734 mmHg 47%
08:00 +27°C° 0 mm 1 mps 735 mmHg 44%
09:00 +28°C° 0 mm 1 mps 735 mmHg 39%
10:00 +30°C° 0 mm 1 mps 735 mmHg 35%
11:00 +31°C° 0 mm 2 mps 735 mmHg 30%
12:00 +32°C° 0 mm 2 mps 734 mmHg 30%
13:00 +32°C° 0 mm 2 mps 733 mmHg 29%
14:00 +34°C° 0 mm 2 mps 733 mmHg 28%
15:00 +32°C° 0 mm 2 mps 733 mmHg 33%
16:00 +30°C° 0 mm 2 mps 733 mmHg 37%
17:00 +29°C° 0 mm 1 mps 733 mmHg 42%
18:00 +28°C° 0 mm 1 mps 733 mmHg 43%
19:00 +27°C° 0 mm 1 mps 734 mmHg 44%
20:00 +26°C° 0 mm 1 mps 734 mmHg 46%
21:00 +25°C° 0 mm 1 mps 734 mmHg 47%
22:00 +25°C° 0 mm 2 mps 734 mmHg 48%
23:00 +24°C° 0 mm 2 mps 734 mmHg 49%

3 Noviembre, Martes

Tiempo Temperatura Precipitaciones Viento Presión Humedad
00:00 +24°C° 0 mm 2 mps 734 mmHg 49%
01:00 +23°C° 0 mm 1 mps 733 mmHg 49%
02:00 +23°C° 0 mm 1 mps 733 mmHg 49%
03:00 +23°C° 0 mm 1 mps 733 mmHg 49%
04:00 +22°C° 0 mm 1 mps 733 mmHg 49%
05:00 +22°C° 0 mm 1 mps 733 mmHg 49%
06:00 +23°C° 0 mm 1 mps 734 mmHg 46%
07:00 +25°C° 0 mm 1 mps 734 mmHg 43%
08:00 +26°C° 0 mm 1 mps 735 mmHg 40%
09:00 +28°C° 0 mm 1 mps 735 mmHg 37%
10:00 +29°C° 0 mm 2 mps 735 mmHg 33%
11:00 +31°C° 0 mm 2 mps 735 mmHg 30%
12:00 +31°C° 0 mm 2 mps 734 mmHg 30%
13:00 +32°C° 0 mm 2 mps 734 mmHg 30%
14:00 +32°C° 0 mm 2 mps 733 mmHg 29%
15:00 +31°C° 0 mm 2 mps 733 mmHg 34%
16:00 +30°C° 0 mm 2 mps 733 mmHg 38%
17:00 +29°C° 0 mm 1 mps 733 mmHg 43%
18:00 +28°C° 0 mm 1 mps 733 mmHg 44%
19:00 +27°C° 0 mm 1 mps 734 mmHg 46%
20:00 +26°C° 0 mm 1 mps 734 mmHg 47%
21:00 +25°C° 0 mm 1 mps 734 mmHg 49%
22:00 +25°C° 0 mm 1 mps 734 mmHg 51%
23:00 +24°C° 0 mm 1 mps 734 mmHg 52%
Mostrar más

Necesitamos Su Consentimiento

Meteoprog y nuestros Proveedores de Servicios pueden almacenar y acceder a sus datos personales como cookies, identificadores de dispositivo u otras tecnologías similares de su dispositivo y procesar dichos datos para personalizar contenido y anuncios, además de ofrecer funciones de redes sociales y analizar el tráfico.

  • Almacenar y/o acceder a información en su dispositivo

    Se puede almacenar o acceder a cookies, identificadores de dispositivo u otra información de su dispositivo para los fines anteriormente indicados.

  • Anuncios y contenido personalizados, medición de anuncios y contenido, percepciones del público, y desarrollo de productos

    Los anuncios y el contenido pueden personalizarse en base a su perfil. Se pueden añadir más datos para personalizar mejor los anuncios y contenidos. Se puede medir el rendimiento de los anuncios y contenidos. Se puede obtener la percepción sobre el público que ha visto los anuncios y contenidos. Dichos datos pueden usarse para desarrollar o mejorar la experiencia del usuario, sistemas y software.

Al hacer clic en ‘Estoy De Acuerdo’ usted permitirá el uso de las cookies, identificadores de dispositivo, balizas web u otras tecnologías similares indicadas. Su configuración puede cambiarse desde el navegador de su dispositivo.

Para ciertos fines, los intereses legítimos pueden ser considerados por encima del consentimiento. Puede leer más sobre ello en nuestra Política de Privacidad y Cookies.